| time (UTC) | temp F | wind direction | speed knots | gust knots | rain 1hr in | rain 24hr in | rain mn in | humidity % | barometer mb |
| 20260905220349 | 72 | 355 | 1.7 | 7.0 | 0.00 | 0.01 | 0.00 | 65 | 1024.5 |
| 20260905215850 | 72 | 302 | 1.7 | 7.0 | 0.00 | 0.01 | 0.00 | 64 | 1024.5 |
| 20260905215349 | 72 | 55 | 1.7 | 6.1 | 0.00 | 0.02 | 0.00 | 65 | 1024.5 |
| 20260905214849 | 72 | 87 | 1.7 | 6.1 | 0.00 | 0.02 | 0.00 | 65 | 1024.5 |
| 20260905214351 | 72 | 30 | 1.7 | 4.3 | 0.00 | 0.03 | 0.00 | 65 | 1024.5 |
| 20260905213845 | 72 | 45 | 1.7 | 4.3 | 0.00 | 0.03 | 0.00 | 63 | 1024.5 |
| 20260905213346 | 72 | 77 | 1.7 | 4.3 | 0.00 | 0.04 | 0.00 | 66 | 1024.6 |
| 20260905212845 | 71 | 276 | 1.7 | 4.3 | 0.00 | 0.04 | 0.00 | 66 | 1024.6 |
| 20260905212346 | 71 | 200 | 1.7 | 5.2 | 0.00 | 0.04 | 0.00 | 67 | 1024.7 |
| 20260905211846 | 70 | 272 | 3.5 | 7.0 | 0.00 | 0.04 | 0.00 | 68 | 1024.8 |
| 20260905211346 | 70 | 232 | 3.5 | 7.8 | 0.00 | 0.04 | 0.00 | 68 | 1024.8 |
| 20260905210844 | 70 | 242 | 3.5 | 7.8 | 0.00 | 0.04 | 0.00 | 69 | 1024.8 |
| 20260905210344 | 70 | 265 | 2.6 | 7.0 | 0.00 | 0.04 | 0.00 | 69 | 1024.8 |
| 20260905205844 | 70 | 254 | 1.7 | 7.0 | 0.00 | 0.04 | 0.00 | 69 | 1024.9 |
| 20260905205343 | 69 | 157 | 1.7 | 6.1 | 0.00 | 0.04 | 0.00 | 68 | 1024.8 |
| 20260905204844 | 69 | 214 | 1.7 | 6.1 | 0.00 | 0.04 | 0.00 | 71 | 1024.8 |
| 20260905204343 | 69 | 310 | 1.7 | 5.2 | 0.00 | 0.04 | 0.00 | 67 | 1024.9 |
| 20260905203843 | 69 | 156 | 1.7 | 4.3 | 0.00 | 0.04 | 0.00 | 69 | 1024.9 |
| 20260905203341 | 69 | 213 | 1.7 | 4.3 | 0.00 | 0.04 | 0.00 | 72 | 1025.0 |
| 20260905202841 | 69 | 262 | 0.9 | 3.5 | 0.00 | 0.04 | 0.00 | 70 | 1025.0 |
| 20260905202341 | 69 | 326 | 1.7 | 4.3 | 0.00 | 0.04 | 0.00 | 70 | 1025.0 |
| 20260905201839 | 69 | 315 | 1.7 | 4.3 | 0.00 | 0.04 | 0.00 | 71 | 1025.0 |
| 20260905201337 | 69 | 327 | 1.7 | 5.2 | 0.00 | 0.04 | 0.00 | 70 | 1025.1 |
| 20260905200838 | 69 | 0 | 1.7 | 5.2 | 0.00 | 0.04 | 0.00 | 70 | 1025.2 |
| 20260905200333 | 69 | 301 | 1.7 | 5.2 | 0.00 | 0.04 | 0.00 | 70 | 1025.2 |
| 20260905195833 | 69 | 45 | 2.6 | 6.1 | 0.00 | 0.04 | 0.00 | 71 | 1025.1 |
| 20260905195331 | 70 | 25 | 1.7 | 6.1 | 0.00 | 0.04 | 0.00 | 71 | 1025.1 |
| 20260905194831 | 70 | 313 | 0.9 | 2.6 | 0.00 | 0.04 | 0.00 | 70 | 1025.2 |
| 20260905194332 | 69 | 116 | 0.9 | 2.6 | 0.00 | 0.05 | 0.00 | 75 | 1025.3 |
| 20260905193832 | 68 | 192 | 0.9 | 4.3 | 0.00 | 0.05 | 0.00 | 70 | 1025.4 |
| 20260905193329 | 68 | 190 | 1.7 | 5.2 | 0.00 | 0.05 | 0.00 | 72 | 1025.5 |
| 20260905192827 | 68 | 192 | 0.9 | 5.2 | 0.00 | 0.05 | 0.00 | 73 | 1025.6 |
| 20260905192329 | 68 | 126 | 0.9 | 3.5 | 0.00 | 0.05 | 0.00 | 75 | 1025.7 |
| 20260905191827 | 68 | 69 | 0.9 | 2.6 | 0.00 | 0.05 | 0.00 | 76 | 1025.6 |
| 20260905191325 | 67 | 52 | 0.9 | 2.6 | 0.00 | 0.05 | 0.00 | 77 | 1025.7 |
| 20260905190825 | 67 | 48 | 0.9 | 2.6 | 0.00 | 0.05 | 0.00 | 76 | 1025.8 |
| 20260905190320 | 66 | 217 | 0.9 | 3.5 | 0.00 | 0.05 | 0.00 | 78 | 1025.7 |
| 20260905185819 | 66 | 221 | 0.9 | 3.5 | 0.00 | 0.05 | 0.00 | 77 | 1025.8 |
| 20260905185318 | 65 | 180 | 0.9 | 4.3 | 0.00 | 0.05 | 0.00 | 79 | 1025.9 |
| 20260905184819 | 65 | 188 | 0.9 | 4.3 | 0.00 | 0.05 | 0.00 | 80 | 1025.8 |
| 20260905184319 | 65 | 214 | 0.9 | 4.3 | 0.00 | 0.05 | 0.00 | 80 | 1025.9 |
| 20260905183820 | 64 | 146 | 0.9 | 3.5 | 0.00 | 0.05 | 0.00 | 81 | 1025.9 |
| 20260905183314 | 64 | 61 | 1.7 | 3.5 | 0.00 | 0.05 | 0.00 | 81 | 1025.9 |
| 20260905182812 | 63 | 128 | 0.9 | 3.5 | 0.00 | 0.05 | 0.00 | 84 | 1025.9 |
| 20260905182313 | 63 | 203 | 0.9 | 3.5 | 0.00 | 0.05 | 0.00 | 83 | 1025.9 |
| 20260905181814 | 63 | 259 | 0.9 | 3.5 | 0.00 | 0.05 | 0.00 | 84 | 1025.9 |
| 20260905181313 | 63 | 224 | 0.0 | 0.9 | 0.00 | 0.05 | 0.00 | 85 | 1025.9 |
| 20260905180814 | 62 | 225 | 0.0 | 1.7 | 0.00 | 0.05 | 0.00 | 85 | 1025.9 |
| 20260905180310 | 62 | 225 | 0.9 | 2.6 | 0.00 | 0.05 | 0.00 | 84 | 1025.9 |
| 20260905175809 | 62 | 225 | 0.9 | 2.6 | 0.00 | 0.05 | 0.00 | 85 | 1025.9 |
| 20260905175307 | 62 | 232 | 0.0 | 2.6 | 0.00 | 0.05 | 0.00 | 86 | 1025.9 |
| 20260905174807 | 61 | 232 | 0.0 | 2.6 | 0.00 | 0.05 | 0.00 | 85 | 1025.9 |
| 20260905174307 | 61 | 167 | 0.0 | 1.7 | 0.00 | 0.05 | 0.00 | 86 | 1025.9 |
| 20260905173806 | 61 | 68 | 0.0 | 0.9 | 0.00 | 0.05 | 0.00 | 87 | 1025.9 |
| 20260905173304 | 61 | 69 | 0.0 | 0.9 | 0.00 | 0.05 | 0.00 | 86 | 1026.0 |
| 20260905172804 | 61 | 69 | 0.0 | 0.9 | 0.00 | 0.05 | 0.00 | 87 | 1026.0 |
| 20260905172305 | 61 | 70 | 0.0 | 0.9 | 0.00 | 0.05 | 0.00 | 87 | 1025.9 |
| 20260905171803 | 60 | 69 | 0.0 | 0.9 | 0.00 | 0.05 | 0.00 | 87 | 1025.9 |
| 20260905171301 | 60 | 69 | 0.0 | 0.9 | 0.00 | 0.05 | 0.00 | 87 | 1025.9 |
| 20260905170801 | 60 | 69 | 0.0 | 0.9 | 0.00 | 0.05 | 0.00 | 87 | 1025.9 |
| 20260905170255 | 60 | 69 | 0.0 | 0.9 | 0.00 | 0.05 | 0.00 | 87 | 1025.8 |
| 20260905165754 | 60 | 69 | 0.0 | 1.7 | 0.00 | 0.05 | 0.00 | 88 | 1025.9 |
| 20260905165251 | 60 | 69 | 0.0 | 1.7 | 0.00 | 0.05 | 0.00 | 88 | 1025.8 |
| 20260905164748 | 60 | 66 | 0.0 | 0.9 | 0.00 | 0.05 | 0.00 | 88 | 1025.8 |
| 20260905164249 | 59 | 67 | 0.0 | 1.7 | 0.00 | 0.05 | 0.00 | 88 | 1025.8 |
| 20260905163745 | 59 | 65 | 0.0 | 1.7 | 0.00 | 0.05 | 0.00 | 88 | 1025.8 |
| 20260905163244 | 59 | 131 | 0.0 | 0.9 | 0.00 | 0.05 | 0.00 | 88 | 1025.7 |
| 20260905162746 | 59 | 131 | 0.0 | 0.9 | 0.00 | 0.05 | 0.00 | 88 | 1025.8 |
| 20260905162245 | 59 | 130 | 0.0 | 0.9 | 0.00 | 0.05 | 0.00 | 88 | 1025.8 |
| 20260905161743 | 59 | 130 | 0.0 | 1.7 | 0.00 | 0.05 | 0.00 | 89 | 1025.9 |
| 20260905161244 | 59 | 131 | 0.0 | 1.7 | 0.00 | 0.05 | 0.00 | 89 | 1025.9 |
| 20260905160739 | 58 | 111 | 0.0 | 1.7 | 0.00 | 0.05 | 0.00 | 89 | 1025.9 |
| 20260905160239 | 58 | 109 | 0.0 | 1.7 | 0.00 | 0.05 | 0.00 | 89 | 1025.9 |
| 20260905155737 | 58 | 111 | 0.0 | 1.7 | 0.00 | 0.05 | 0.00 | 90 | 1026.0 |
| 20260905155236 | 58 | 102 | 0.0 | 2.6 | 0.00 | 0.05 | 0.00 | 89 | 1026.0 |
| 20260905154735 | 58 | 104 | 0.0 | 2.6 | 0.00 | 0.05 | 0.00 | 90 | 1025.9 |
| 20260905154235 | 57 | 118 | 0.0 | 2.6 | 0.00 | 0.05 | 0.00 | 90 | 1025.9 |
| 20260905153732 | 57 | 119 | 0.0 | 3.5 | 0.00 | 0.05 | 0.00 | 90 | 1025.9 |
| 20260905153233 | 57 | 119 | 0.0 | 3.5 | 0.00 | 0.05 | 0.00 | 90 | 1025.8 |
| 20260905152734 | 57 | 101 | 0.0 | 2.6 | 0.00 | 0.05 | 0.00 | 90 | 1025.7 |
| 20260905152231 | 57 | 104 | 0.0 | 2.6 | 0.00 | 0.05 | 0.00 | 90 | 1025.8 |
| 20260905151728 | 57 | 84 | 0.0 | 1.7 | 0.00 | 0.05 | 0.00 | 90 | 1025.7 |
| 20260905151228 | 57 | 78 | 0.0 | 1.7 | 0.00 | 0.05 | 0.00 | 91 | 1025.7 |
| 20260905150726 | 56 | 78 | 0.0 | 1.7 | 0.00 | 0.05 | 0.00 | 91 | 1025.7 |
| 20260905150225 | 56 | 78 | 0.0 | 1.7 | 0.00 | 0.05 | 0.00 | 91 | 1025.8 |
| 20260905145725 | 56 | 78 | 0.9 | 1.7 | 0.00 | 0.05 | 0.00 | 91 | 1025.8 |
| 20260905145224 | 56 | 79 | 0.9 | 2.6 | 0.00 | 0.06 | 0.00 | 92 | 1025.8 |
| 20260905144726 | 56 | 78 | 0.9 | 3.5 | 0.00 | 0.06 | 0.00 | 92 | 1025.8 |
| 20260905144224 | 56 | 79 | 0.9 | 3.5 | 0.00 | 0.07 | 0.00 | 91 | 1025.8 |
| 20260905143726 | 55 | 104 | 0.9 | 3.5 | 0.00 | 0.07 | 0.00 | 91 | 1025.8 |
| 20260905143222 | 55 | 104 | 0.0 | 3.5 | 0.00 | 0.07 | 0.00 | 92 | 1025.8 |
| 20260905142721 | 55 | 91 | 0.0 | 1.7 | 0.00 | 0.07 | 0.00 | 92 | 1025.9 |
| 20260905142220 | 55 | 90 | 0.0 | 1.7 | 0.00 | 0.07 | 0.00 | 92 | 1025.9 |
| 20260905141721 | 55 | 90 | 0.0 | 0.0 | 0.00 | 0.07 | 0.00 | 92 | 1025.8 |
| 20260905141220 | 55 | 91 | 0.0 | 0.0 | 0.00 | 0.07 | 0.00 | 92 | 1025.8 |
| 20260905140720 | 55 | 91 | 0.0 | 0.0 | 0.00 | 0.07 | 0.00 | 91 | 1025.8 |
| 20260905140222 | 55 | 91 | 0.0 | 0.0 | 0.00 | 0.08 | 0.00 | 91 | 1025.8 |
| 20260905135716 | 55 | 91 | 0.0 | 0.0 | 0.00 | 0.08 | 0.00 | 91 | 1025.8 |
| 20260905135214 | 55 | 90 | 0.0 | 0.0 | 0.00 | 0.08 | 0.00 | 91 | 1025.8 |
| 20260905134714 | 55 | 91 | 0.0 | 0.0 | 0.00 | 0.08 | 0.00 | 91 | 1025.7 |
| 20260905134215 | 55 | 90 | 0.0 | 0.0 | 0.00 | 0.08 | 0.00 | 91 | 1025.7 |
| 20260905133715 | 55 | 91 | 0.0 | 0.0 | 0.00 | 0.09 | 0.00 | 91 | 1025.7 |
| 20260905133214 | 55 | 91 | 0.0 | 0.0 | 0.00 | 0.09 | 0.00 | 91 | 1025.7 |
| 20260905132715 | 55 | 90 | 0.0 | 0.0 | 0.00 | 0.09 | 0.00 | 91 | 1025.6 |
| 20260905132213 | 55 | 90 | 0.0 | 0.0 | 0.00 | 0.09 | 0.00 | 91 | 1025.6 |
| 20260905131712 | 55 | 91 | 0.0 | 0.0 | 0.00 | 0.09 | 0.00 | 91 | 1025.6 |
| 20260905131214 | 55 | 90 | 0.0 | 0.0 | 0.00 | 0.09 | 0.00 | 91 | 1025.6 |
| 20260905130712 | 55 | 90 | 0.0 | 0.0 | 0.00 | 0.09 | 0.00 | 91 | 1025.6 |
| 20260905130213 | 55 | 91 | 0.0 | 0.0 | 0.00 | 0.09 | 0.00 | 91 | 1025.4 |
| 20260905125713 | 55 | 91 | 0.0 | 0.0 | 0.00 | 0.09 | 0.00 | 91 | 1025.5 |
| 20260905125207 | 55 | 90 | 0.0 | 0.0 | 0.00 | 0.09 | 0.00 | 91 | 1025.5 |
| 20260905124700 | 55 | 91 | 0.0 | 0.9 | 0.00 | 0.09 | 0.00 | 91 | 1025.4 |
| 20260905124156 | 55 | 90 | 0.0 | 0.9 | 0.00 | 0.09 | 0.00 | 91 | 1025.4 |
| 20260905123658 | 55 | 90 | 0.0 | 0.0 | 0.00 | 0.09 | 0.00 | 91 | 1025.3 |
| 20260905123156 | 55 | 91 | 0.0 | 0.0 | 0.00 | 0.09 | 0.00 | 91 | 1025.3 |
| 20260905122657 | 55 | 91 | 0.0 | 0.0 | 0.00 | 0.09 | 0.00 | 91 | 1025.2 |
| 20260905122157 | 55 | 91 | 0.0 | 0.0 | 0.00 | 0.09 | 0.00 | 91 | 1025.0 |
| 20260905121657 | 55 | 90 | 0.0 | 0.0 | 0.00 | 0.09 | 0.00 | 91 | 1025.0 |
| 20260905121153 | 55 | 91 | 0.0 | 0.0 | 0.00 | 0.09 | 0.00 | 91 | 1025.1 |
| 20260905120652 | 55 | 90 | 0.0 | 0.0 | 0.00 | 0.09 | 0.00 | 91 | 1025.0 |
| 20260905120153 | 55 | 90 | 0.0 | 0.0 | 0.00 | 0.09 | 0.00 | 91 | 1025.1 |
| 20260905115652 | 55 | 91 | 0.0 | 0.0 | 0.00 | 0.09 | 0.00 | 91 | 1025.1 |
| 20260905115152 | 55 | 91 | 0.0 | 0.0 | 0.00 | 0.09 | 0.00 | 91 | 1025.1 |
| 20260905114653 | 55 | 90 | 0.0 | 0.9 | 0.00 | 0.09 | 0.00 | 91 | 1025.0 |
| 20260905114148 | 55 | 91 | 0.0 | 0.9 | 0.00 | 0.09 | 0.00 | 91 | 1025.0 |
| 20260905113650 | 55 | 90 | 0.0 | 0.0 | 0.00 | 0.09 | 0.00 | 91 | 1025.0 |
| 20260905113148 | 55 | 91 | 0.0 | 0.0 | 0.00 | 0.09 | 0.00 | 91 | 1025.1 |
| 20260905112648 | 55 | 91 | 0.0 | 0.9 | 0.00 | 0.09 | 0.00 | 91 | 1025.1 |
| 20260905112147 | 55 | 91 | 0.0 | 0.9 | 0.00 | 0.09 | 0.00 | 91 | 1025.0 |
| 20260905111646 | 55 | 91 | 0.0 | 0.9 | 0.00 | 0.09 | 0.00 | 91 | 1025.0 |
| 20260905111146 | 55 | 90 | 0.0 | 0.9 | 0.00 | 0.09 | 0.00 | 91 | 1024.9 |
| 20260905110646 | 55 | 90 | 0.0 | 0.0 | 0.00 | 0.09 | 0.00 | 92 | 1025.0 |
| 20260905110147 | 55 | 90 | 0.0 | 0.0 | 0.00 | 0.09 | 0.00 | 92 | 1025.1 |
| 20260905105646 | 55 | 90 | 0.0 | 0.9 | 0.00 | 0.09 | 0.00 | 92 | 1025.1 |
| 20260905105147 | 55 | 90 | 0.0 | 0.9 | 0.00 | 0.09 | 0.00 | 92 | 1025.1 |
| 20260905104642 | 55 | 90 | 0.0 | 0.9 | 0.00 | 0.09 | 0.00 | 92 | 1025.2 |
| 20260905104139 | 55 | 91 | 0.0 | 0.9 | 0.00 | 0.09 | 0.00 | 92 | 1025.1 |
| 20260905103636 | 55 | 90 | 0.0 | 0.9 | 0.00 | 0.09 | 0.00 | 92 | 1025.2 |
| 20260905103135 | 55 | 90 | 0.0 | 0.9 | 0.00 | 0.09 | 0.00 | 92 | 1025.1 |
| 20260905102635 | 55 | 90 | 0.0 | 1.7 | 0.00 | 0.10 | 0.00 | 92 | 1025.1 |
| 20260905102130 | 55 | 90 | 0.0 | 1.7 | 0.00 | 0.10 | 0.00 | 92 | 1025.2 |
| 20260905101630 | 55 | 90 | 0.0 | 0.0 | 0.00 | 0.10 | 0.00 | 92 | 1025.2 |
| 20260905101131 | 55 | 90 | 0.0 | 0.0 | 0.00 | 0.10 | 0.00 | 92 | 1025.2 |
| 20260905100630 | 54 | 90 | 0.0 | 0.0 | 0.00 | 0.11 | 0.00 | 91 | 1025.2 |
| 20260905100128 | 54 | 90 | 0.0 | 0.0 | 0.00 | 0.11 | 0.00 | 91 | 1025.1 |
| 20260905095628 | 54 | 91 | 0.0 | 0.0 | 0.00 | 0.11 | 0.00 | 91 | 1025.1 |
| 20260905095127 | 54 | 91 | 0.0 | 0.0 | 0.00 | 0.12 | 0.00 | 91 | 1025.0 |
| 20260905094624 | 54 | 91 | 0.0 | 0.0 | 0.00 | 0.12 | 0.00 | 91 | 1025.1 |
| 20260905094122 | 54 | 90 | 0.0 | 0.0 | 0.00 | 0.12 | 0.00 | 91 | 1025.2 |
| 20260905093622 | 54 | 91 | 0.0 | 0.0 | 0.00 | 0.12 | 0.00 | 91 | 1025.1 |
| 20260905093122 | 54 | 90 | 0.0 | 0.0 | 0.00 | 0.12 | 0.00 | 91 | 1025.1 |
| 20260905092621 | 54 | 90 | 0.0 | 0.0 | 0.00 | 0.12 | 0.00 | 91 | 1025.2 |
| 20260905092120 | 54 | 90 | 0.0 | 0.0 | 0.00 | 0.12 | 0.00 | 90 | 1025.2 |
| 20260905091620 | 54 | 90 | 0.0 | 0.0 | 0.00 | 0.12 | 0.00 | 90 | 1025.2 |
| 20260905091121 | 54 | 90 | 0.0 | 0.0 | 0.00 | 0.12 | 0.00 | 90 | 1025.1 |
| 20260905090618 | 54 | 91 | 0.0 | 0.0 | 0.00 | 0.13 | 0.00 | 90 | 1025.2 |
| 20260905090116 | 54 | 90 | 0.0 | 0.0 | 0.00 | 0.13 | 0.00 | 90 | 1025.1 |
| 20260905085616 | 54 | 90 | 0.0 | 0.0 | 0.00 | 0.14 | 0.00 | 90 | 1025.0 |
| 20260905085114 | 55 | 90 | 0.0 | 0.0 | 0.00 | 0.14 | 0.00 | 90 | 1025.1 |
| 20260905084613 | 55 | 90 | 0.0 | 0.0 | 0.00 | 0.15 | 0.00 | 90 | 1025.1 |
| 20260905084115 | 55 | 91 | 0.0 | 0.0 | 0.00 | 0.16 | 0.00 | 90 | 1025.2 |
| 20260905083612 | 55 | 90 | 0.0 | 0.0 | 0.00 | 0.17 | 0.00 | 90 | 1025.1 |
| 20260905083110 | 55 | 91 | 0.0 | 0.0 | 0.00 | 0.17 | 0.00 | 90 | 1025.1 |
| 20260905082610 | 55 | 90 | 0.0 | 0.0 | 0.00 | 0.18 | 0.00 | 90 | 1025.0 |
| 20260905082108 | 56 | 90 | 0.0 | 0.0 | 0.00 | 0.18 | 0.00 | 90 | 1024.9 |
| 20260905081606 | 56 | 91 | 0.0 | 0.0 | 0.00 | 0.19 | 0.00 | 89 | 1025.0 |
| 20260905081104 | 56 | 90 | 0.0 | 1.7 | 0.00 | 0.19 | 0.00 | 89 | 1025.0 |
| 20260905080604 | 56 | 92 | 0.0 | 1.7 | 0.00 | 0.20 | 0.00 | 89 | 1024.8 |
| 20260905080104 | 56 | 91 | 0.0 | 2.6 | 0.00 | 0.20 | 0.00 | 89 | 1024.8 |
| 20260905075603 | 56 | 90 | 0.9 | 2.6 | 0.00 | 0.20 | 0.00 | 89 | 1024.7 |
| 20260905075059 | 56 | 90 | 0.0 | 1.7 | 0.00 | 0.20 | 0.00 | 89 | 1024.7 |
| 20260905074558 | 56 | 91 | 0.0 | 0.9 | 0.00 | 0.20 | 0.00 | 90 | 1024.6 |
| 20260905074058 | 56 | 91 | 0.0 | 1.7 | 0.00 | 0.20 | 0.00 | 90 | 1024.7 |
| 20260905073558 | 56 | 90 | 0.0 | 1.7 | 0.00 | 0.20 | 0.00 | 90 | 1024.7 |
| 20260905073058 | 56 | 90 | 0.0 | 1.7 | 0.00 | 0.20 | 0.00 | 90 | 1024.7 |
| 20260905072558 | 56 | 90 | 0.0 | 1.7 | 0.00 | 0.20 | 0.00 | 90 | 1024.7 |
| 20260905072052 | 56 | 91 | 0.0 | 2.6 | 0.00 | 0.20 | 0.00 | 90 | 1024.7 |
| 20260905071552 | 56 | 90 | 0.0 | 2.6 | 0.00 | 0.20 | 0.00 | 90 | 1024.7 |
| 20260905071052 | 56 | 89 | 0.0 | 1.7 | 0.00 | 0.20 | 0.00 | 90 | 1024.7 |
| 20260905070552 | 56 | 89 | 0.0 | 0.9 | 0.00 | 0.20 | 0.00 | 90 | 1024.7 |
| 20260905070052 | 56 | 89 | 0.0 | 0.9 | 0.00 | 0.20 | 0.00 | 90 | 1024.6 |
| 20260905065553 | 56 | 90 | 0.0 | 1.7 | 0.00 | 0.20 | 0.20 | 90 | 1024.6 |
| 20260905065047 | 56 | 89 | 0.0 | 2.6 | 0.00 | 0.20 | 0.20 | 90 | 1024.6 |
| 20260905064546 | 56 | 90 | 0.0 | 2.6 | 0.00 | 0.20 | 0.20 | 90 | 1024.5 |
| 20260905064046 | 56 | 80 | 0.0 | 1.7 | 0.00 | 0.20 | 0.20 | 89 | 1024.6 |
| 20260905063547 | 56 | 81 | 0.0 | 1.7 | 0.00 | 0.20 | 0.20 | 89 | 1024.5 |
| 20260905063046 | 56 | 80 | 0.9 | 2.6 | 0.00 | 0.20 | 0.20 | 89 | 1024.5 |
| 20260905062547 | 56 | 81 | 0.9 | 3.5 | 0.00 | 0.20 | 0.20 | 89 | 1024.3 |
| 20260905062045 | 56 | 77 | 0.9 | 3.5 | 0.00 | 0.20 | 0.20 | 89 | 1024.4 |
| 20260905061542 | 56 | 92 | 0.9 | 2.6 | 0.00 | 0.20 | 0.20 | 89 | 1024.3 |
| 20260905061040 | 56 | 90 | 0.9 | 2.6 | 0.00 | 0.20 | 0.20 | 89 | 1024.4 |
| 20260905060540 | 56 | 91 | 0.9 | 2.6 | 0.00 | 0.20 | 0.20 | 89 | 1024.3 |
| 20260905060040 | 56 | 90 | 0.9 | 3.5 | 0.00 | 0.20 | 0.20 | 89 | 1024.4 |
| 20260905055541 | 56 | 86 | 0.0 | 3.5 | 0.00 | 0.20 | 0.20 | 89 | 1024.4 |
| 20260905055034 | 56 | 87 | 0.9 | 2.6 | 0.00 | 0.20 | 0.20 | 89 | 1024.4 |
| 20260905054533 | 56 | 87 | 0.9 | 2.6 | 0.00 | 0.20 | 0.20 | 89 | 1024.3 |
| 20260905054032 | 56 | 90 | 0.9 | 3.5 | 0.00 | 0.20 | 0.20 | 90 | 1024.2 |
| 20260905053528 | 56 | 85 | 0.9 | 3.5 | 0.00 | 0.20 | 0.20 | 90 | 1024.3 |
| 20260905053028 | 56 | 82 | 0.9 | 1.7 | 0.00 | 0.20 | 0.20 | 89 | 1024.3 |
| 20260905052523 | 56 | 83 | 0.9 | 2.6 | 0.00 | 0.20 | 0.20 | 90 | 1024.1 |
| 20260905052021 | 56 | 82 | 0.9 | 2.6 | 0.00 | 0.20 | 0.20 | 90 | 1024.1 |
| 20260905051519 | 56 | 82 | 0.9 | 2.6 | 0.00 | 0.20 | 0.20 | 90 | 1024.1 |
| 20260905051016 | 56 | 84 | 0.9 | 3.5 | 0.00 | 0.20 | 0.20 | 90 | 1024.1 |
| 20260905050516 | 56 | 83 | 0.0 | 2.6 | 0.00 | 0.20 | 0.20 | 90 | 1024.1 |
| 20260905050011 | 56 | 84 | 0.0 | 2.6 | 0.00 | 0.20 | 0.20 | 90 | 1024.1 |
| 20260905045512 | 56 | 143 | 0.0 | 1.7 | 0.00 | 0.20 | 0.20 | 90 | 1024.1 |
| 20260905045013 | 56 | 143 | 0.0 | 1.7 | 0.00 | 0.20 | 0.20 | 90 | 1024.1 |
| 20260905044512 | 56 | 144 | 0.0 | 1.7 | 0.00 | 0.20 | 0.20 | 90 | 1024.1 |
| 20260905044010 | 56 | 143 | 0.0 | 0.0 | 0.00 | 0.20 | 0.20 | 90 | 1024.1 |
| 20260905043511 | 56 | 143 | 0.0 | 0.9 | 0.00 | 0.20 | 0.20 | 89 | 1024.0 |
| 20260905043006 | 56 | 143 | 0.0 | 0.9 | 0.00 | 0.20 | 0.20 | 89 | 1024.0 |
| 20260905042506 | 56 | 143 | 0.0 | 0.9 | 0.00 | 0.20 | 0.20 | 89 | 1024.0 |
| 20260905042004 | 56 | 143 | 0.0 | 2.6 | 0.00 | 0.20 | 0.20 | 89 | 1023.9 |
| 20260905041504 | 56 | 144 | 0.0 | 2.6 | 0.00 | 0.20 | 0.20 | 89 | 1023.7 |
| 20260905041004 | 56 | 148 | 0.0 | 1.7 | 0.00 | 0.20 | 0.20 | 89 | 1023.7 |
| 20260905040503 | 57 | 147 | 0.0 | 3.5 | 0.00 | 0.20 | 0.20 | 89 | 1023.6 |
| 20260905040003 | 57 | 148 | 0.0 | 3.5 | 0.00 | 0.20 | 0.20 | 89 | 1023.6 |
| 20260905035500 | 57 | 135 | 0.0 | 1.7 | 0.00 | 0.20 | 0.20 | 89 | 1023.5 |
| 20260905034958 | 57 | 136 | 0.0 | 1.7 | 0.00 | 0.20 | 0.20 | 89 | 1023.5 |
| 20260905034458 | 57 | 136 | 0.0 | 1.7 | 0.00 | 0.20 | 0.20 | 89 | 1023.6 |
| 20260905033958 | 58 | 136 | 0.0 | 0.9 | 0.00 | 0.20 | 0.20 | 89 | 1023.5 |
| 20260905033459 | 58 | 136 | 0.0 | 1.7 | 0.00 | 0.21 | 0.20 | 89 | 1023.4 |
| 20260905032954 | 58 | 135 | 0.0 | 1.7 | 0.00 | 0.21 | 0.20 | 89 | 1023.4 |
| 20260905032454 | 58 | 136 | 0.0 | 0.0 | 0.00 | 0.21 | 0.20 | 88 | 1023.3 |
| 20260905031952 | 58 | 135 | 0.0 | 0.0 | 0.00 | 0.21 | 0.20 | 88 | 1023.3 |
| 20260905031451 | 58 | 135 | 0.0 | 0.0 | 0.00 | 0.21 | 0.20 | 88 | 1023.3 |
| 20260905030952 | 58 | 135 | 0.0 | 0.9 | 0.00 | 0.21 | 0.20 | 88 | 1023.2 |
| 20260905030451 | 58 | 135 | 0.0 | 1.7 | 0.00 | 0.22 | 0.20 | 88 | 1023.3 |
| 20260905025950 | 58 | 135 | 0.0 | 1.7 | 0.00 | 0.22 | 0.20 | 88 | 1023.3 |
| 20260905025450 | 59 | 107 | 0.0 | 1.7 | 0.00 | 0.22 | 0.20 | 88 | 1023.0 |
| 20260905024949 | 59 | 107 | 0.9 | 6.1 | 0.00 | 0.22 | 0.20 | 88 | 1023.0 |
| 20260905024450 | 59 | 107 | 1.7 | 6.1 | 0.00 | 0.22 | 0.20 | 87 | 1023.0 |
| 20260905023951 | 59 | 110 | 1.7 | 5.2 | 0.00 | 0.23 | 0.20 | 87 | 1023.1 |
| 20260905023450 | 59 | 96 | 1.7 | 5.2 | 0.00 | 0.25 | 0.20 | 87 | 1023.1 |
| 20260905022951 | 60 | 117 | 1.7 | 4.3 | 0.00 | 0.27 | 0.20 | 86 | 1023.0 |
| 20260905022446 | 60 | 144 | 1.7 | 7.8 | 0.00 | 0.28 | 0.20 | 86 | 1023.0 |
| 20260905021946 | 60 | 123 | 2.6 | 7.8 | 0.00 | 0.28 | 0.20 | 85 | 1023.0 |
| 20260905021446 | 61 | 100 | 1.7 | 6.1 | 0.00 | 0.29 | 0.20 | 84 | 1023.0 |
| 20260905020946 | 61 | 103 | 1.7 | 9.6 | 0.00 | 0.29 | 0.20 | 83 | 1023.0 |
| 20260905020447 | 61 | 115 | 2.6 | 9.6 | 0.00 | 0.29 | 0.20 | 82 | 1023.0 |
| 20260905015943 | 62 | 124 | 2.6 | 10.4 | 0.00 | 0.29 | 0.20 | 81 | 1022.9 |
| 20260905015445 | 62 | 114 | 2.6 | 10.4 | 0.00 | 0.29 | 0.20 | 80 | 1023.0 |
| 20260905014941 | 62 | 101 | 2.6 | 9.6 | 0.00 | 0.29 | 0.20 | 80 | 1023.0 |
| 20260905014440 | 63 | 113 | 3.5 | 8.7 | 0.00 | 0.29 | 0.20 | 80 | 1023.0 |
| 20260905013940 | 63 | 213 | 3.5 | 12.2 | 0.00 | 0.29 | 0.20 | 81 | 1023.0 |
| 20260905013439 | 64 | 135 | 3.5 | 12.2 | 0.00 | 0.29 | 0.20 | 82 | 1023.0 |
| 20260905012941 | 64 | 138 | 3.5 | 7.8 | 0.00 | 0.29 | 0.20 | 81 | 1022.9 |
| 20260905012438 | 64 | 79 | 1.7 | 7.8 | 0.00 | 0.29 | 0.20 | 79 | 1022.8 |
| 20260905011939 | 64 | 105 | 1.7 | 6.1 | 0.00 | 0.29 | 0.20 | 77 | 1022.7 |
| 20260905011437 | 64 | 138 | 1.7 | 6.1 | 0.00 | 0.29 | 0.20 | 79 | 1022.7 |
| 20260905010934 | 65 | 117 | 1.7 | 4.3 | 0.00 | 0.29 | 0.20 | 82 | 1022.7 |
| 20260905010435 | 65 | 105 | 1.7 | 4.3 | 0.00 | 0.29 | 0.20 | 83 | 1022.7 |
| 20260905005933 | 65 | 85 | 1.7 | 7.0 | 0.00 | 0.30 | 0.20 | 82 | 1022.7 |
| 20260905005434 | 65 | 66 | 1.7 | 7.0 | 0.00 | 0.30 | 0.20 | 81 | 1022.6 |
| 20260905004931 | 65 | 82 | 1.7 | 5.2 | 0.00 | 0.30 | 0.20 | 81 | 1022.6 |
| 20260905004433 | 65 | 72 | 1.7 | 3.5 | 0.00 | 0.30 | 0.20 | 81 | 1022.7 |
| 20260905003931 | 65 | 88 | 0.9 | 3.5 | 0.00 | 0.30 | 0.20 | 79 | 1022.7 |
| 20260905003432 | 65 | 151 | 1.7 | 6.1 | 0.00 | 0.30 | 0.20 | 77 | 1022.5 |
| 20260905002932 | 65 | 161 | 1.7 | 6.1 | 0.00 | 0.30 | 0.20 | 76 | 1022.4 |
| 20260905002427 | 65 | 195 | 2.6 | 6.1 | 0.00 | 0.30 | 0.20 | 78 | 1022.4 |
| 20260905001921 | 65 | 94 | 2.6 | 6.1 | 0.00 | 0.30 | 0.20 | 80 | 1022.4 |
| 20260905001423 | 66 | 74 | 1.7 | 6.1 | 0.00 | 0.30 | 0.20 | 81 | 1022.4 |
| 20260905000922 | 66 | 86 | 0.9 | 3.5 | 0.00 | 0.31 | 0.20 | 80 | 1022.4 |
| 20260905000421 | 66 | 97 | 0.9 | 3.5 | 0.00 | 0.33 | 0.20 | 80 | 1022.3 |
| 20260904235921 | 66 | 62 | 0.9 | 5.2 | 0.00 | 0.34 | 0.20 | 79 | 1022.3 |
| 20260904235423 | 66 | 117 | 0.9 | 5.2 | 0.00 | 0.35 | 0.20 | 77 | 1022.2 |
| 20260904234917 | 66 | 104 | 0.9 | 5.2 | 0.00 | 0.36 | 0.20 | 76 | 1022.1 |
| 20260904234417 | 66 | 138 | 0.9 | 3.5 | 0.00 | 0.36 | 0.20 | 78 | 1022.1 |
| 20260904233919 | 66 | 140 | 0.0 | 2.6 | 0.01 | 0.36 | 0.20 | 78 | 1022.1 |
| 20260904233417 | 66 | 186 | 1.7 | 7.0 | 0.01 | 0.36 | 0.20 | 76 | 1022.0 |
| 20260904232918 | 66 | 186 | 2.6 | 7.0 | 0.01 | 0.36 | 0.20 | 78 | 1022.1 |
| 20260904232419 | 66 | 154 | 1.7 | 7.0 | 0.01 | 0.36 | 0.20 | 78 | 1021.9 |
| 20260904231913 | 66 | 279 | 0.9 | 4.3 | 0.01 | 0.36 | 0.20 | 79 | 1022.0 |
| 20260904231413 | 66 | 79 | 0.9 | 4.3 | 0.01 | 0.36 | 0.20 | 79 | 1021.8 |
| 20260904230915 | 66 | 225 | 0.0 | 2.6 | 0.01 | 0.36 | 0.20 | 82 | 1021.9 |
| 20260904230414 | 65 | 106 | 0.0 | 2.6 | 0.01 | 0.36 | 0.20 | 82 | 1021.8 |
| 20260904225915 | 65 | 106 | 0.0 | 2.6 | 0.01 | 0.37 | 0.20 | 83 | 1021.8 |
| 20260904225414 | 64 | 109 | 0.9 | 2.6 | 0.02 | 0.38 | 0.20 | 85 | 1021.8 |
| 20260904224909 | 64 | 162 | 0.9 | 2.6 | 0.02 | 0.39 | 0.20 | 86 | 1021.8 |
| 20260904224409 | 63 | 176 | 0.9 | 1.7 | 0.03 | 0.39 | 0.20 | 86 | 1021.9 |
| 20260904223906 | 62 | 180 | 0.0 | 3.5 | 0.02 | 0.39 | 0.19 | 88 | 1021.8 |
| 20260904223405 | 62 | 179 | 0.9 | 3.5 | 0.02 | 0.39 | 0.19 | 87 | 1021.8 |
| 20260904222907 | 62 | 180 | 0.0 | 2.6 | 0.03 | 0.39 | 0.19 | 88 | 1021.9 |
| 20260904222405 | 61 | 180 | 0.0 | 2.6 | 0.03 | 0.39 | 0.19 | 88 | 1021.9 |
| 20260904221905 | 61 | 180 | 0.0 | 1.7 | 0.03 | 0.39 | 0.19 | 88 | 1021.8 |
| 20260904221405 | 61 | 181 | 0.0 | 1.7 | 0.03 | 0.39 | 0.19 | 88 | 1021.8 |
| 20260904220906 | 61 | 182 | 0.9 | 2.6 | 0.03 | 0.39 | 0.19 | 88 | 1021.8 |